[[{"header":{"parameterUnit":"m.s-1","parameterCategory":1,"la1":30.2992,"la2":30.254,"lo1":-89.0895,"lo2":-89.0443,"dy":0.0025,"dx":0.0025,"nx":19,"ny":19,"refTime":"2026-05-22T09:00:00:Z","depth":0,"parameterNumber":2,"parameterNumberName":"U-component_of_WINDS"},"data":[0,0,0,-2.9217,-2.9225,-2.9669,-2.9671,-3.0195,-3.0199,0,0,0,0,0,0,0,0,0,0,0,-2.9051,-2.9053,-2.9216,-2.9226,-2.9669,-2.9672,-3.0194,-3.0199,0,0,0,0,0,0,0,0,0,0,0,-2.9049,-2.9052,-2.9055,-2.9228,-2.9669,-2.9672,-3.0193,-2.9876,0,0,0,0,0,0,0,0,0,0,-2.9454,-2.9265,-2.9051,-2.9055,-2.923,-2.9668,-2.9672,-2.9862,-2.9896,-2.9972,0,-3.0023,0,-3.0118,-3.0231,-3.0232,0,0,0,-2.9255,-2.9236,-2.9385,-2.9055,-2.9234,-2.9667,-2.9478,-2.9882,-2.992,-3.0017,-3.0031,-3.0052,-3.0127,-3.0234,-3.0236,-3.0556,-3.0556,0,0,-2.9231,-2.9115,-2.9358,-2.9408,-2.9327,-2.9463,-2.9491,-2.9906,-2.9917,-3.0033,-3.0065,-3.0135,-3.0237,-3.024,-3.0556,-3.0556,0,0,0,-2.9141,-2.9096,-2.9237,-2.9385,-2.9467,-2.9475,-2.9507,-2.9899,-2.9954,-3.0072,-3.0142,-3.024,-3.0245,-3.0556,-3.0556,-3.0445,0,0,0,-2.9127,-2.9044,-2.9224,-2.9158,-2.9458,-2.9687,-2.949,-2.9925,-2.9976,-3.0139,-3.024,-3.025,-3.0556,-3.0556,-3.0448,-3.0414,0,0,0,-2.9034,-2.9033,-2.9084,-2.9151,-2.9336,-2.9683,-2.9763,-2.9939,-3.0017,-3.0233,-3.0251,-3.0556,-3.0556,-3.045,-3.0419,-3.0462,0,0,0,-2.8904,-2.8986,-2.908,-2.92,-2.9331,-2.9607,-2.9762,-2.9976,-3.0148,-3.0242,-3.0556,-3.0556,-3.0451,-3.0422,-3.0464,-3.0477,-3.047,0,0,-2.8944,-2.8987,-2.9067,-2.9164,-2.9391,-2.9549,-2.9766,-3.0039,-3.0172,-3.0422,-3.0432,-3.0447,-3.0419,-3.0462,-3.0476,-3.0469,0,0,0,-2.904,-2.9096,-2.9181,-2.9333,-2.9536,-2.9709,-2.9959,-3.006,-3.0276,-3.0273,-3.0478,-3.0465,-3.0496,-3.0508,-3.0503,-3.0537,-3.0556,-3.0556,-3.0556,-2.8934,-2.9089,-2.9231,-2.9437,-2.9584,-2.9836,-2.9972,-3.0152,-3.0275,-3.032,-3.0396,-3.0383,-3.0393,-3.039,-3.0423,-3.0415,-3.0415,-3.0415,-3.0414,-2.9007,-2.911,-2.9259,-2.945,-2.9616,-2.9783,-3.0029,-3.0108,-3.0292,-3.0341,-3.0376,-3.0416,-3.0378,-3.0416,-3.0408,-3.0409,-3.041,-3.041,-3.0411,-2.8956,-2.9031,-2.9144,-2.9376,-2.9539,-2.975,-2.9914,-3.0063,-3.0205,-3.0239,-3.0335,-3.0337,-3.0359,-3.0273,-3.0273,-3.0273,-3.0273,-3.0273,-3.0273,-2.8857,-2.8988,-2.9103,-2.9319,-2.9433,-2.9604,-2.9855,-2.9976,-3.0148,-3.0244,-3.0246,-3.0362,-3.0343,-3.0335,-3.0273,-3.0273,-3.0273,-3.0273,-3.0273,-2.8876,-2.8893,-2.907,-2.9183,-2.9448,-2.9599,-2.9782,-3.0013,-3.0135,-3.0212,-3.032,-3.0281,-3.034,-3.0345,-3.034,-3.0284,-3.0284,-3.0284,-3.0284,-2.8832,-2.8872,-2.9084,-2.9255,-2.944,-2.9621,-2.9823,-3.0019,-3.0227,-3.0313,-3.0342,-3.0347,-3.0345,-3.0406,-3.041,-3.0408,-3.0371,-3.0371,-3.0371,-2.8852,-2.8916,-2.9055,-2.9246,-2.9463,-2.9647,-2.9842,-3.0039,-3.0279,-3.0378,-3.0383,-3.0379,-3.039,-3.0385,-3.0485,-3.0488,-3.0487,0,0]},{"header":{"parameterUnit":"m.s-1","parameterCategory":1,"la1":30.2992,"la2":30.254,"lo1":-89.0895,"lo2":-89.0443,"dy":0.0025,"dx":0.0025,"nx":19,"ny":19,"refTime":"2026-05-22T09:00:00:Z","depth":0,"parameterNumber":3,"parameterNumberName":"V-component_of_WINDS"},"data":[0,0,0,6.448,6.4484,6.4674,6.4675,6.4944,6.4947,0,0,0,0,0,0,0,0,0,0,0,6.4438,6.4441,6.4479,6.4485,6.4674,6.4675,6.4944,6.4947,0,0,0,0,0,0,0,0,0,0,0,6.4437,6.444,6.4443,6.4485,6.4674,6.4675,6.4943,6.4791,0,0,0,0,0,0,0,0,0,0,6.4602,6.4577,6.4439,6.4443,6.4487,6.4674,6.4675,6.4783,6.48,6.4869,0,6.4933,0,6.4945,6.4966,6.4967,0,0,0,6.4474,6.4563,6.4601,6.4443,6.4488,6.4674,6.4586,6.4792,6.4812,6.4892,6.4937,6.4946,6.4949,6.4968,6.497,6.5404,6.5406,0,0,6.4463,6.448,6.4588,6.4615,6.4586,6.458,6.4592,6.4804,6.4854,6.4938,6.4952,6.4954,6.497,6.4973,6.5401,6.5404,0,0,0,6.444,6.4474,6.4506,6.4604,6.4636,6.4585,6.4599,6.4844,6.4853,6.4955,6.4957,6.4972,6.4976,6.5398,6.5402,6.5544,0,0,0,6.4433,6.446,6.4502,6.4514,6.4633,6.4743,6.4636,6.4839,6.4862,6.4955,6.4972,6.4978,6.5395,6.54,6.5534,6.5608,0,0,0,6.4421,6.4458,6.4491,6.4515,6.4597,6.4739,6.476,6.4843,6.4864,6.4968,6.4979,6.5394,6.54,6.5525,6.5593,6.5727,0,0,0,6.4412,6.4614,6.4494,6.472,6.4596,6.4825,6.4758,6.4928,6.5034,6.4974,6.5396,6.5402,6.5522,6.5584,6.5717,6.5842,6.5895,0,0,6.4676,6.4646,6.4778,6.4676,6.4932,6.4795,6.5072,6.5152,6.5147,6.5319,6.5329,6.5537,6.5592,6.5725,6.6192,6.6235,0,0,0,6.4868,6.4963,6.5027,6.5129,6.5196,6.526,6.5296,6.5327,6.5472,6.5238,6.5622,6.5654,6.5731,6.579,6.5826,6.5891,6.543,6.5429,6.5429,6.5264,6.5248,6.5465,6.5472,6.5572,6.561,6.569,6.5737,6.569,6.5781,6.5831,6.6117,6.6186,6.6213,6.6282,6.5897,6.5897,6.5898,6.5898,6.5649,6.578,6.5716,6.5903,6.5885,6.6043,6.6089,6.6051,6.6195,6.6077,6.6144,6.6015,6.6261,6.6319,6.5909,6.5907,6.5906,6.5905,6.5904,6.5905,6.5965,6.6,6.6148,6.6264,6.6265,6.6408,6.6386,6.6367,6.6434,6.6485,6.6482,6.6476,6.646,6.6461,6.6462,6.6463,6.6464,6.6464,6.6157,6.6191,6.6314,6.6405,6.6469,6.6551,6.6594,6.6656,6.672,6.6693,6.6694,6.6638,6.6288,6.62,6.6479,6.6477,6.6475,6.6473,6.6472,6.6549,6.6458,6.6647,6.6712,6.6818,6.6936,6.6908,6.7039,6.7088,6.716,6.7092,6.6837,6.6804,6.6775,6.6702,6.7094,6.7094,6.7094,6.7094,6.6765,6.6747,6.6937,6.7042,6.7142,6.7138,6.7354,6.7392,6.7415,6.7445,6.7386,6.7288,6.7259,6.7243,6.7204,6.7135,6.7629,6.763,6.763,6.7005,6.6997,6.7184,6.7206,6.7289,6.7361,6.7565,6.7689,6.7697,6.7652,6.7468,6.7445,6.7287,6.7236,6.7183,6.7122,6.6996,0,0]}]]